Date String (YYYY-MM-DD hh:mm:ss) UTC,Instrument flags,Ambient pressure (hPa),Sample flow (lpm),Bypass flow (lpm),Sample temperature (°C),Ambient temperature (°C),ASC tube jacket temperature (°C),LED temperature (°C),Box temperature (°C),Sample RH (%),Span deviation,Mass concentration (μg/m³),Mass concentration (μg/m³),Mass concentration (μg/m³)
DateTimeUTC,F1_M11,P_M11,Q1_M11,Q2_M11,T1_M11,T2_M11,T3_M11,T4_M11,T5_M11,U1_M11,ZSPAN_M11,X0_M11,X2_M11,X1_M11
2022-09-11 19:00:00,,0833.5,5.01,0.00,30.7,29.6,00.0,39.4,32.5,19.4,0000.1,0011.09,0006.94,0006.70
2022-09-11 19:01:00,,0833.5,5.01,0.00,30.7,29.6,00.0,39.4,32.5,19.1,-000.1,0011.93,0006.97,0006.72
2022-09-11 19:02:00,,0833.4,4.99,0.00,30.7,29.6,00.0,39.4,32.5,19.5,0000.9,0011.71,0006.97,0006.74
2022-09-11 19:03:00,,0833.4,5.01,0.00,30.7,29.6,00.0,39.4,32.6,20.1,0001.0,0011.28,0006.99,0006.75
2022-09-11 19:04:00,,0833.4,4.99,0.00,30.8,29.6,00.0,39.4,32.6,20.7,0001.5,0010.72,0007.00,0006.77
2022-09-11 19:05:00,,0833.5,5.02,0.00,30.8,29.6,00.0,39.4,32.6,20.3,0001.6,0010.58,0007.01,0006.77
2022-09-11 19:06:00,,0833.4,4.99,0.00,30.8,29.6,00.0,39.5,32.6,20.3,0001.4,0010.57,0007.01,0006.77
2022-09-11 19:07:00,,0833.4,5.02,0.00,30.8,29.7,00.0,39.5,32.6,20.3,0000.0,0011.17,0007.01,0006.77
2022-09-11 19:08:00,,0833.4,4.99,0.00,30.8,29.7,00.0,39.5,32.6,20.4,0000.0,0011.30,0007.02,0006.77
2022-09-11 19:09:00,,0833.4,5.00,0.00,30.8,29.7,00.0,39.5,32.7,18.2,0000.0,0011.39,0007.04,0006.78
2022-09-11 19:10:00,,0833.3,4.99,0.00,30.9,29.7,00.0,39.5,32.7,16.7,0000.0,0011.48,0007.04,0006.79
2022-09-11 19:11:00,,0833.3,5.01,0.00,30.9,29.7,00.0,39.5,32.7,17.8,0000.0,0011.53,0007.05,0006.80
2022-09-11 19:12:00,,0833.3,4.99,0.00,30.9,29.7,00.0,39.5,32.7,18.7,0000.6,0010.69,0007.05,0006.81
2022-09-11 19:13:00,,0833.3,5.01,0.00,30.9,29.7,00.0,39.6,32.7,19.2,0001.2,0010.21,0007.08,0006.82
2022-09-11 19:14:00,,0833.3,5.00,0.00,30.9,29.7,00.0,39.6,32.7,20.4,0001.2,0010.19,0007.07,0006.82
2022-09-11 19:15:00,,0833.3,5.01,0.00,30.9,29.7,00.0,39.6,32.7,20.3,0000.8,0010.25,0007.08,0006.82
2022-09-11 19:16:00,,0833.3,4.99,0.00,30.9,29.7,00.0,39.6,32.7,20.6,0001.1,0010.28,0007.11,0006.84
2022-09-11 19:17:00,,0833.2,5.01,0.00,31.0,29.8,00.0,39.6,32.7,20.6,0001.7,0010.24,0007.10,0006.85
2022-09-11 19:18:00,,0833.2,5.00,0.00,31.0,28.9,00.0,39.6,32.8,19.0,0001.4,0009.83,0007.14,0006.86
2022-09-11 19:19:00,,0833.2,5.00,0.00,30.9,27.7,00.0,39.6,32.6,17.7,0001.6,0009.66,0007.17,0006.88
2022-09-11 19:20:00,,0833.2,5.01,0.00,30.9,27.5,00.0,39.5,32.6,17.6,0001.5,0009.62,0007.17,0006.89
2022-09-11 19:21:00,,0833.2,5.00,0.00,30.8,27.7,00.0,39.5,32.4,17.7,0001.5,0009.69,0007.17,0006.90
2022-09-11 19:22:00,,0833.1,5.00,0.00,30.7,28.0,00.0,39.4,32.3,18.4,0001.6,0009.77,0007.19,0006.92
2022-09-11 19:23:00,,0833.1,5.00,0.00,30.7,28.3,00.0,39.4,32.3,18.9,0001.2,0009.99,0007.22,0006.93
2022-09-11 19:24:00,,0833.1,5.00,0.00,30.6,28.5,00.0,39.4,32.3,19.2,0001.1,0010.15,0007.22,0006.92
2022-09-11 19:25:00,,0833.2,4.99,0.00,30.6,28.7,00.0,39.4,32.3,19.0,0001.8,0010.28,0007.25,0006.93
2022-09-11 19:26:00,,0833.1,5.00,0.00,30.6,28.8,00.0,39.4,32.3,19.0,0002.3,0010.24,0007.25,0006.94
2022-09-11 19:27:00,,0833.2,5.00,0.00,30.6,29.0,00.0,39.4,32.3,18.0,0002.4,0010.24,0007.26,0006.94
2022-09-11 19:28:00,,0833.1,5.00,0.00,30.6,29.1,00.0,39.4,32.4,17.7,0002.1,0010.30,0007.30,0006.97
2022-09-11 19:29:00,,0833.1,5.00,0.00,30.6,29.1,00.0,39.4,32.4,18.1,0002.1,0010.20,0007.27,0006.96
2022-09-11 19:30:00,,0833.1,5.00,0.00,30.6,29.2,00.0,39.4,32.4,17.7,0002.1,0010.23,0007.24,0006.95
2022-09-11 19:31:00,,0833.2,5.00,0.00,30.6,29.2,00.0,39.4,32.4,18.1,0002.6,0010.37,0007.25,0006.95
2022-09-11 19:32:00,,0833.1,4.99,0.00,30.6,29.3,00.0,39.4,32.4,18.6,0002.8,0010.22,0007.26,0006.96
2022-09-11 19:33:00,,0833.1,5.00,0.00,30.6,29.3,00.0,39.4,32.4,18.4,0000.3,0010.01,0007.25,0006.95
2022-09-11 19:34:00,,0833.1,5.01,0.00,30.7,29.4,00.0,39.4,32.4,18.3,0000.0,0009.76,0007.23,0006.96
2022-09-11 19:35:00,,0833.1,4.99,0.00,30.7,29.4,00.0,39.4,32.5,17.4,0000.0,0009.60,0007.22,0006.97
2022-09-11 19:36:00,,0833.1,5.00,0.00,30.7,29.4,00.0,39.4,32.5,17.4,0000.0,0009.46,0007.19,0006.96
2022-09-11 19:37:00,,0833.1,4.97,0.00,30.7,29.5,00.0,39.4,32.5,16.4,0000.0,0009.50,0007.21,0006.98
2022-09-11 19:38:00,,0833.1,5.01,0.00,30.7,29.5,00.0,39.4,32.5,16.3,0000.0,0009.60,0007.22,0007.00
2022-09-11 19:39:00,,0833.0,4.98,0.00,30.7,29.5,00.0,39.4,32.6,16.5,0001.2,0009.56,0007.20,0006.99
2022-09-11 19:40:00,,0833.1,5.01,0.00,30.8,29.5,00.0,39.5,32.6,16.5,0001.7,0009.56,0007.21,0007.00
2022-09-11 19:41:00,,0833.0,4.99,0.00,30.8,29.5,00.0,39.5,32.6,16.4,0001.2,0009.47,0007.22,0007.01
2022-09-11 19:42:00,,0833.0,5.01,0.00,30.8,29.6,00.0,39.5,32.6,16.1,0000.5,0009.31,0007.21,0007.01
2022-09-11 19:43:00,,0833.1,4.99,0.00,30.8,29.1,00.0,39.5,32.6,16.6,0000.6,0009.32,0007.23,0007.03
2022-09-11 19:44:00,,0833.0,5.00,0.00,30.8,27.7,00.0,39.4,32.5,17.3,0000.6,0009.32,0007.24,0007.04
2022-09-11 19:45:00,,0833.1,5.01,0.00,30.7,26.9,00.0,39.4,32.4,16.7,0000.5,0009.34,0007.23,0007.05
2022-09-11 19:46:00,,0833.0,5.00,0.00,30.6,27.0,00.0,39.3,32.3,16.6,0000.8,0009.32,0007.22,0007.06
2022-09-11 19:47:00,,0833.1,5.00,0.00,30.5,27.3,00.0,39.3,32.1,16.5,0000.9,0009.35,0007.25,0007.08
2022-09-11 19:48:00,,0833.0,5.00,0.00,30.5,27.7,00.0,39.2,32.1,16.2,0001.4,0009.43,0007.28,0007.09
2022-09-11 19:49:00,,0833.0,4.99,0.00,30.4,28.0,00.0,39.2,32.0,16.6,0001.6,0009.36,0007.27,0007.09
2022-09-11 19:50:00,,0833.0,5.00,0.00,30.4,28.2,00.0,39.2,32.1,17.7,0001.6,0009.36,0007.27,0007.08
2022-09-11 19:51:00,,0833.0,5.00,0.00,30.4,28.4,00.0,39.2,32.1,17.4,0001.4,0009.41,0007.26,0007.07
2022-09-11 19:52:00,,0832.9,5.00,0.00,30.4,28.6,00.0,39.2,32.1,17.2,0001.3,0009.60,0007.28,0007.07
2022-09-11 19:53:00,,0832.9,4.99,0.00,30.4,28.8,00.0,39.1,32.1,16.4,0000.9,0009.67,0007.28,0007.07
2022-09-11 19:54:00,,0832.8,5.00,0.00,30.4,28.9,00.0,39.1,32.2,16.7,0001.2,0009.65,0007.26,0007.06
2022-09-11 19:55:00,,0832.8,5.00,0.00,30.4,28.9,00.0,39.1,32.2,17.0,0001.7,0009.84,0007.27,0007.06
2022-09-11 19:56:00,,0832.8,5.01,0.00,30.4,29.0,00.0,39.2,32.2,17.1,0001.8,0010.51,0007.30,0007.07
2022-09-11 19:57:00,,0832.8,4.99,0.00,30.4,29.1,00.0,39.2,32.2,16.9,0001.7,0010.52,0007.31,0007.08
2022-09-11 19:58:00,,0832.8,4.99,0.00,30.4,29.1,00.0,39.2,32.3,17.1,0001.5,0010.67,0007.32,0007.08
2022-09-11 19:59:00,,0832.8,5.01,0.00,30.5,29.2,00.0,39.2,32.3,17.4,0001.0,0010.65,0007.32,0007.08
